BEIDOU-2 IGSO-2

Last updated on Wed Sep 17 2025 00:02:47 GMT+0000 (Coordinated Universal Time)

1 37256U 10068A 25258.98238906 -.00000167 00000+0 00000+0 0 9998 2 37256 48.0423 275.2268 0048568 216.4128 324.0019 1.00259559 54041
UTC large
Height (km)
Speed (km/s)
/
Latitude / Longitude
Inclination (degrees)
Orbital Period (minutes)
Azimuth
Elevation
Range (km)
Doppler Factor

Next 0 passes for location: London (51.5072 / 0.1276)

Sorry there are no passes over London.